�������l�o���
Date,Time,MP-1(��Sv/h),MP-2(��Sv/h),MP-3(��Sv/h),MP-4(��Sv/h),MP-5(��Sv/h),MP-6(��Sv/h),MP-7(��Sv/h),MP-8(��Sv/h),����,����(m/s),���J
2024/04/29,00:00,0.512,0.776,0.488,0.961,0.698,0.317,0.555,0.517,�쐼,2.6,��
2024/04/29,00:10,0.509,0.776,0.488,0.962,0.699,0.318,0.555,0.518,��,2.5,��
2024/04/29,00:20,0.511,0.776,0.489,0.962,0.698,0.318,0.556,0.519,��,2.6,��
2024/04/29,00:30,0.510,0.777,0.488,0.963,0.699,0.316,0.557,0.517,��,1.7,��
2024/04/29,00:40,0.511,0.778,0.488,0.963,0.700,0.318,0.558,0.518,��,1.2,��
2024/04/29,00:50,0.509,0.775,0.488,0.961,0.699,0.317,0.556,0.517,���k��,1.7,��
2024/04/29,01:00,0.509,0.774,0.488,0.962,0.699,0.318,0.557,0.518,���k��,1.2,��
2024/04/29,01:10,0.509,0.776,0.488,0.961,0.696,0.317,0.554,0.517,���k��,2.9,��
2024/04/29,01:20,0.511,0.776,0.488,0.962,0.697,0.316,0.556,0.518,��,2.6,��
2024/04/29,01:30,0.511,0.777,0.487,0.963,0.698,0.317,0.556,0.518,���k��,4.7,��
2024/04/29,01:40,0.509,0.777,0.488,0.964,0.697,0.316,0.555,0.518,���k��,4.2,��
2024/04/29,01:50,0.511,0.777,0.489,0.961,0.698,0.317,0.557,0.518,���쐼,2.3,��
2024/04/29,02:00,0.511,0.775,0.488,0.963,0.698,0.317,0.556,0.517,�쐼,2.6,��
2024/04/29,02:10,0.510,0.776,0.488,0.963,0.697,0.317,0.557,0.517,��,3.0,��
2024/04/29,02:20,0.509,0.777,0.487,0.962,0.696,0.316,0.556,0.518,��,2.8,��
2024/04/29,02:30,0.511,0.776,0.487,0.961,0.698,0.316,0.557,0.516,��,2.8,��
2024/04/29,02:40,0.511,0.776,0.489,0.962,0.699,0.317,0.556,0.518,��쓌,2.2,��
2024/04/29,02:50,0.510,0.777,0.488,0.961,0.698,0.317,0.557,0.521,��,1.9,��
2024/04/29,03:00,0.510,0.778,0.487,0.961,0.698,0.316,0.557,0.518,��쐼,2.0,��
2024/04/29,03:10,0.511,0.776,0.487,0.962,0.696,0.318,0.555,0.519,��쐼,2.3,��
2024/04/29,03:20,0.510,0.776,0.487,0.962,0.697,0.317,0.555,0.517,��,2.6,��
2024/04/29,03:30,0.510,0.776,0.488,0.963,0.696,0.317,0.555,0.518,��쐼,2.3,��
2024/04/29,03:40,0.509,0.777,0.487,0.962,0.697,0.316,0.557,0.519,��쐼,1.2,��
2024/04/29,03:50,0.511,0.778,0.490,0.962,0.700,0.317,0.556,0.518,�k��,0.9,��
2024/04/29,04:00,0.511,0.775,0.488,0.962,0.697,0.317,0.558,0.518,�k,2.0,��
2024/04/29,04:10,0.511,0.775,0.488,0.962,0.696,0.316,0.556,0.517,�k��,3.2,��
2024/04/29,04:20,0.509,0.778,0.488,0.962,0.698,0.318,0.556,0.517,�k��,4.4,��
2024/04/29,04:30,0.512,0.776,0.487,0.963,0.697,0.317,0.556,0.517,�k�k��,5.0,��
2024/04/29,04:40,0.509,0.777,0.488,0.964,0.698,0.316,0.555,0.518,�k,5.0,��
2024/04/29,04:50,0.510,0.776,0.488,0.963,0.697,0.318,0.556,0.520,�k,4.8,��
2024/04/29,05:00,0.510,0.778,0.488,0.963,0.697,0.318,0.556,0.519,�k�k��,4.2,��
2024/04/29,05:10,0.510,0.775,0.487,0.962,0.697,0.317,0.556,0.517,�k�k��,5.4,��
2024/04/29,05:20,0.510,0.776,0.487,0.962,0.697,0.317,0.557,0.518,�k�k��,5.5,��
2024/04/29,05:30,0.511,0.778,0.487,0.962,0.698,0.316,0.556,0.518,�k�k��,4.8,��
2024/04/29,05:40,0.509,0.775,0.488,0.961,0.698,0.315,0.556,0.519,�k�k��,5.7,��
2024/04/29,05:50,0.510,0.777,0.487,0.961,0.695,0.317,0.556,0.518,�k�k��,6.1,��
2024/04/29,06:00,0.510,0.776,0.487,0.963,0.696,0.317,0.556,0.518,�k�k��,5.3,��
2024/04/29,06:10,0.508,0.775,0.488,0.962,0.697,0.316,0.555,0.518,�k�k��,5.0,��
2024/04/29,06:20,0.510,0.777,0.487,0.961,0.699,0.316,0.558,0.518,�k�k��,3.7,��
2024/04/29,06:30,0.509,0.777,0.487,0.962,0.698,0.316,0.557,0.518,�k,3.9,��
2024/04/29,06:40,0.510,0.776,0.488,0.963,0.698,0.317,0.556,0.518,�k,3.5,��
2024/04/29,06:50,0.510,0.776,0.487,0.960,0.698,0.315,0.556,0.519,�k�k��,2.6,��
2024/04/29,07:00,0.511,0.775,0.488,0.963,0.697,0.315,0.556,0.519,�k,2.2,��
2024/04/29,07:10,0.510,0.774,0.487,0.962,0.697,0.315,0.556,0.518,�k,2.8,��
2024/04/29,07:20,0.511,0.774,0.487,0.961,0.695,0.314,0.557,0.518,�k�k��,1.5,��
2024/04/29,07:30,0.508,0.775,0.488,0.962,0.694,0.315,0.557,0.519,�k,2.2,��
2024/04/29,07:40,0.509,0.775,0.488,0.962,0.695,0.315,0.557,0.518,�k�k��,2.0,��
2024/04/29,07:50,0.509,0.775,0.486,0.963,0.696,0.315,0.557,0.519,�k�k��,3.1,��
2024/04/29,08:00,0.509,0.774,0.486,0.962,0.696,0.315,0.556,0.517,�k�k��,5.1,��
2024/04/29,08:10,0.508,0.773,0.487,0.964,0.695,0.316,0.557,0.520,�k,5.9,��
2024/04/29,08:20,0.507,0.773,0.485,0.964,0.696,0.315,0.557,0.516,�k,7.1,��
2024/04/29,08:30,0.509,0.774,0.486,0.961,0.696,0.314,0.555,0.515,�k,7.4,��
2024/04/29,08:40,0.509,0.775,0.485,0.963,0.696,0.314,0.554,0.516,�k,7.1,��
2024/04/29,08:50,0.508,0.772,0.487,0.964,0.695,0.315,0.554,0.515,�k,7.1,��
2024/04/29,09:00,0.508,0.775,0.485,0.964,0.694,0.315,0.554,0.515,�k,7.5,��
2024/04/29,09:10,0.507,0.774,0.486,0.963,0.695,0.313,0.553,0.516,�k,6.7,��
2024/04/29,09:20,0.508,0.774,0.485,0.963,0.696,0.315,0.554,0.517,�k,7.2,��
2024/04/29,09:30,0.509,0.774,0.485,0.964,0.697,0.316,0.554,0.517,�k,7.6,��
2024/04/29,09:40,0.507,0.775,0.486,0.963,0.694,0.315,0.552,0.516,�k,5.4,��
2024/04/29,09:50,0.508,0.775,0.486,0.962,0.696,0.315,0.554,0.516,�k,6.6,��
2024/04/29,10:00,0.507,0.775,0.486,0.961,0.695,0.313,0.553,0.516,�k�k��,4.4,��
2024/04/29,10:10,0.508,0.773,0.487,0.962,0.696,0.316,0.552,0.517,�k�k��,5.2,��
2024/04/29,10:20,0.509,0.773,0.485,0.961,0.696,0.314,0.551,0.517,�k�k��,4.1,��
2024/04/29,10:30,0.509,0.774,0.485,0.963,0.694,0.313,0.552,0.517,�k�k��,3.9,��
2024/04/29,10:40,0.509,0.774,0.485,0.963,0.694,0.315,0.551,0.517,�k�k��,5.1,��
2024/04/29,10:50,0.509,0.775,0.486,0.963,0.695,0.315,0.552,0.518,�k�k��,5.5,��
2024/04/29,11:00,0.511,0.775,0.485,0.962,0.696,0.315,0.553,0.517,�k�k��,5.4,��
2024/04/29,11:10,0.508,0.775,0.485,0.964,0.697,0.315,0.551,0.518,�k�k��,4.8,��
2024/04/29,11:20,0.510,0.778,0.486,0.961,0.696,0.315,0.551,0.517,�k�k��,5.3,��
2024/04/29,11:30,0.510,0.776,0.487,0.959,0.696,0.315,0.552,0.516,�k�k��,4.5,��
2024/04/29,11:40,0.510,0.776,0.486,0.962,0.698,0.315,0.553,0.517,�k��,3.6,��
2024/04/29,11:50,0.510,0.775,0.486,0.960,0.696,0.314,0.551,0.516,�k�k��,3.1,��
2024/04/29,12:00,0.511,0.774,0.486,0.960,0.699,0.315,0.553,0.517,�k��,4.0,��
2024/04/29,12:10,0.509,0.776,0.487,0.960,0.697,0.316,0.552,0.518,�k��,4.2,��
2024/04/29,12:20,0.511,0.775,0.486,0.962,0.699,0.316,0.552,0.517,�k�k��,4.0,��
2024/04/29,12:30,0.511,0.778,0.487,0.962,0.697,0.315,0.552,0.518,�k�k��,3.6,��
2024/04/29,12:40,0.510,0.777,0.487,0.962,0.698,0.317,0.552,0.517,�k�k��,3.2,��
2024/04/29,12:50,0.510,0.777,0.487,0.962,0.699,0.317,0.551,0.518,�k�k��,3.2,��
2024/04/29,13:00,0.512,0.777,0.488,0.961,0.699,0.315,0.552,0.519,�k��,2.6,��
2024/04/29,13:10,0.511,0.775,0.487,0.962,0.700,0.315,0.554,0.517,�k��,2.8,��
2024/04/29,13:20,0.510,0.777,0.488,0.961,0.699,0.315,0.553,0.518,���k��,3.4,��
2024/04/29,13:30,0.510,0.777,0.487,0.962,0.700,0.317,0.553,0.518,�k��,2.9,��
2024/04/29,13:40,0.511,0.777,0.489,0.962,0.698,0.316,0.553,0.515,���k��,2.9,��
2024/04/29,13:50,0.512,0.777,0.488,0.962,0.699,0.316,0.552,0.519,�k��,2.6,��
2024/04/29,14:00,0.510,0.777,0.488,0.963,0.698,0.317,0.553,0.518,�k��,2.9,��
2024/04/29,14:10,0.512,0.776,0.488,0.962,0.698,0.315,0.553,0.518,�k�k��,2.8,��
2024/04/29,14:20,0.511,0.775,0.487,0.963,0.699,0.317,0.555,0.518,�k��,3.2,��
2024/04/29,14:30,0.511,0.778,0.487,0.963,0.698,0.317,0.553,0.518,�k��,3.4,��
2024/04/29,14:40,0.510,0.778,0.488,0.961,0.699,0.315,0.554,0.518,�k�k��,3.0,��
2024/04/29,14:50,0.511,0.776,0.488,0.963,0.699,0.317,0.555,0.517,�k�k��,3.0,��
2024/04/29,15:00,0.511,0.778,0.488,0.962,0.700,0.316,0.553,0.517,�k�k��,2.9,��
2024/04/29,15:10,0.512,0.777,0.487,0.962,0.698,0.315,0.555,0.518,�k�k��,2.9,��
2024/04/29,15:20,0.511,0.779,0.489,0.962,0.701,0.315,0.556,0.517,���k��,2.5,��
2024/04/29,15:30,0.511,0.779,0.488,0.962,0.698,0.316,0.555,0.519,�k��,3.0,��
2024/04/29,15:40,0.510,0.777,0.488,0.963,0.699,0.317,0.555,0.517,�k��,3.2,��
2024/04/29,15:50,0.510,0.778,0.488,0.963,0.698,0.316,0.555,0.516,�k�k��,3.0,��
2024/04/29,16:00,0.510,0.778,0.490,0.963,0.700,0.315,0.556,0.520,�k�k��,2.6,��
2024/04/29,16:10,0.510,0.778,0.486,0.964,0.698,0.316,0.555,0.518,�k��,3.2,��
2024/04/29,16:20,0.510,0.779,0.487,0.962,0.700,0.316,0.555,0.517,�k��,2.0,��
2024/04/29,16:30,0.509,0.776,0.488,0.964,0.698,0.316,0.555,0.516,���k��,2.3,��
2024/04/29,16:40,0.510,0.778,0.487,0.963,0.698,0.316,0.555,0.518,�k��,2.6,��
2024/04/29,16:50,0.509,0.778,0.487,0.964,0.699,0.315,0.555,0.519,�k��,2.3,��
2024/04/29,17:00,0.510,0.778,0.487,0.964,0.698,0.316,0.554,0.518,�k��,1.5,��
2024/04/29,17:10,0.511,0.778,0.486,0.965,0.699,0.316,0.555,0.519,���k��,1.5,��
2024/04/29,17:20,0.511,0.778,0.487,0.964,0.699,0.316,0.554,0.517,�k�k��,1.7,��
2024/04/29,17:30,0.510,0.781,0.486,0.965,0.698,0.315,0.555,0.517,�k��,1.7,��
2024/04/29,17:40,0.510,0.781,0.487,0.965,0.698,0.316,0.556,0.519,�k�k��,1.9,��
2024/04/29,17:50,0.512,0.780,0.488,0.967,0.699,0.316,0.556,0.519,��,1.2,��
2024/04/29,18:00,0.511,0.780,0.488,0.966,0.698,0.316,0.555,0.518,���k��,1.1,��
2024/04/29,18:10,0.511,0.780,0.490,0.967,0.699,0.316,0.555,0.519,�k�k��,0.9,��
2024/04/29,18:20,0.512,0.781,0.487,0.966,0.698,0.317,0.556,0.518,�k�k��,1.1,��
2024/04/29,18:30,0.511,0.780,0.488,0.968,0.700,0.315,0.556,0.518,�k�k��,1.9,��
2024/04/29,18:40,0.514,0.781,0.491,0.967,0.702,0.316,0.557,0.518,�k�k��,2.0,��
2024/04/29,18:50,0.512,0.781,0.490,0.967,0.703,0.316,0.557,0.519,�k�k��,1.7,��
2024/04/29,19:00,0.512,0.781,0.490,0.967,0.702,0.317,0.556,0.518,�k,1.7,��
2024/04/29,19:10,0.512,0.781,0.491,0.967,0.702,0.316,0.558,0.519,�k�k��,2.6,��
2024/04/29,19:20,0.512,0.781,0.488,0.969,0.702,0.318,0.556,0.517,�k,3.9,��
2024/04/29,19:30,0.512,0.780,0.490,0.967,0.701,0.317,0.556,0.519,�k�k��,2.6,�L
2024/04/29,19:40,0.510,0.781,0.489,0.967,0.700,0.315,0.559,0.518,�k��,2.8,�L
2024/04/29,19:50,0.512,0.781,0.490,0.966,0.701,0.317,0.556,0.517,�k�k��,3.1,�L
2024/04/29,20:00,0.511,0.779,0.490,0.967,0.702,0.316,0.557,0.519,�k�k��,3.4,��
2024/04/29,20:10,0.511,0.781,0.490,0.966,0.702,0.316,0.557,0.519,�k��,3.3,��
2024/04/29,20:20,0.512,0.781,0.489,0.968,0.701,0.316,0.557,0.520,�k�k��,3.2,�L
2024/04/29,20:30,0.511,0.782,0.489,0.967,0.701,0.317,0.558,0.518,�k�k��,3.8,�L
2024/04/29,20:40,0.511,0.781,0.489,0.965,0.702,0.316,0.557,0.519,�k��,2.9,�L
2024/04/29,20:50,0.512,0.779,0.490,0.964,0.700,0.316,0.556,0.518,�k�k��,3.8,�L
2024/04/29,21:00,0.511,0.780,0.488,0.965,0.702,0.317,0.557,0.519,�k�k��,3.1,�L
2024/04/29,21:10,0.513,0.780,0.490,0.967,0.701,0.316,0.558,0.519,�k�k��,3.4,�L
2024/04/29,21:20,0.511,0.781,0.490,0.966,0.701,0.317,0.556,0.520,�k�k��,2.6,��
2024/04/29,21:30,0.513,0.780,0.490,0.968,0.702,0.316,0.558,0.520,�k��,2.6,��
2024/04/29,21:40,0.510,0.779,0.490,0.967,0.700,0.316,0.557,0.519,�k��,2.9,��
2024/04/29,21:50,0.513,0.782,0.489,0.967,0.700,0.317,0.557,0.521,�k�k��,1.7,�L
2024/04/29,22:00,0.513,0.778,0.490,0.969,0.699,0.318,0.557,0.518,�k��,1.1,��
2024/04/29,22:10,0.512,0.780,0.487,0.968,0.702,0.317,0.557,0.520,�k��,1.2,��
2024/04/29,22:20,0.513,0.781,0.489,0.967,0.701,0.316,0.557,0.521,�k�k��,1.2,��
2024/04/29,22:30,0.513,0.780,0.489,0.966,0.700,0.318,0.558,0.520,�k,0.8,��
2024/04/29,22:40,0.511,0.779,0.490,0.967,0.701,0.318,0.558,0.520,�k�k��,1.2,��
2024/04/29,22:50,0.514,0.780,0.490,0.966,0.701,0.317,0.559,0.519,-,CALM,��
2024/04/29,23:00,0.512,0.779,0.488,0.967,0.701,0.317,0.558,0.520,��,0.9,��
2024/04/29,23:10,0.511,0.780,0.489,0.965,0.700,0.317,0.557,0.519,�쐼,0.8,��
2024/04/29,23:20,0.512,0.781,0.491,0.968,0.700,0.318,0.558,0.518,�쓌,0.9,��
2024/04/29,23:30,0.512,0.778,0.489,0.966,0.699,0.316,0.558,0.519,���k��,0.9,��
2024/04/29,23:40,0.513,0.779,0.490,0.966,0.700,0.317,0.558,0.520,���쓌,0.6,��
2024/04/29,23:50,0.514,0.778,0.490,0.968,0.702,0.317,0.557,0.519,-,CALM,��
